Regional Weather Roundup
Issued by NWS

Home | Current Version | Previous Version | Graphics & Text | Print | Product List | Glossary On
Versions: 1 2 3 4 5 6 7 8 9 10 11 12 13 14 15 16 17 18 19 20 21 22 23 24 25 26 27 28 29 30 31 32 33 34 35 36 37 38 39 40 41 42 43 44 45 46 47 48 49 50
000
ASUS43 KDMX 240106
RWRIA

WEATHER ROUNDUP FOR IOWA
NATIONAL WEATHER SERVICE DES MOINES IA
700 PM CST MON JAN 23 2017

NOTE: "FAIR" INDICATES FEW OR NO CLOUDS BELOW 12,000 FEET WITH NO
SIGNIFICANT WEATHER AND/OR OBSTRUCTIONS TO VISIBILITY.

* - THESE STATIONS ARE NOT NWS STATIONS...THUS NOT UNDER NWS
QUALITY CONTROL.  THEY ALSO DO NOT REPORT WEATHER SUCH
AS PRECIPITATION OR FOG.

IAZ001>003-012>014-020>022-031>034-043>046-240200-
   NORTHWEST IOWA

CITY           SKY/WX    TMP DP  RH WIND       PRES   REMARKS
CARROLL *      CLOUDY    32  32 100 CALM      29.83R
CHEROKEE *     CLOUDY    32  31  96 SE3       29.83S
DENISON *      CLOUDY    32  30  93 E7        29.80S WCI  26
LE MARS *      CLOUDY    32  28  86 SE6       29.83S WCI  26
ORANGE CITY *  CLOUDY    30  30 100 SE3       29.81S
SHELDON *      CLOUDY    32  32 100 SE5       29.81S WCI  27
SIOUX CITY     CLOUDY    34  29  82 SE7       29.82R WCI  28
SPENCER        CLOUDY    32  29  88 CALM      29.83R
STORM LAKE *   CLOUDY    32  30  93 E6        29.81F WCI  26
$$

IAZ055>058-069>071-079>083-090>094-240200-
   SOUTHWEST IOWA

CITY           SKY/WX    TMP DP  RH WIND       PRES   REMARKS
ATLANTIC *     CLOUDY    32  28  86 SE7       29.84R WCI  26
AUDUBON *      CLOUDY    32  28  86 E3        29.83R
CLARINDA *     CLOUDY    34  30  86 SE7       29.86R WCI  28
COUNCIL BLFS * CLOUDY    32  32 100 SE8       29.82R WCI  25
CRESTON *      CLOUDY    32  30  93 E7        29.83F WCI  26
HARLAN  *      CLOUDY    32  32 100 SE7       29.86R WCI  26
LAMONI         CLOUDY    32  28  85 E3        29.83F
RED OAK *      CLOUDY    34  30  86 SE7       29.83S WCI  28
SHENANDOAH *   CLOUDY    32  30  93 SE5       29.85R WCI  27
$$

IAZ047>049-059>061-072>074-084-240200-
   CENTRAL IOWA

CITY           SKY/WX    TMP DP  RH WIND       PRES   REMARKS
AMES           CLOUDY    32  32 100 CALM      29.84S
ANKENY *       CLOUDY    32  30  93 CALM      29.86S
BOONE *        CLOUDY    32  32 100 CALM      29.83S
CHARITON *     CLOUDY    32  30  93 CALM      29.84S
DES MOINES     CLOUDY    34  28  79 NE3       29.85S
GRINNELL*      CLOUDY    32  30  91 CALM      29.84F
KNOXVILLE *    CLOUDY    32  28  86 CALM      29.84R
MARSHALLTOWN   CLOUDY    33  30  88 NE6       29.82F WCI  28
NEWTON *       CLOUDY    32  30  93 N5        29.84S WCI  27
PELLA *        CLOUDY    32  30  92 CALM      29.86S
PERRY *        CLOUDY    33  32  94 CALM      29.84S
$$

IAZ004>006-015-016-023>025-035-036-240200-
   NORTH CENTRAL IOWA

CITY           SKY/WX    TMP DP  RH WIND       PRES   REMARKS
ALGONA *       CLOUDY    32  32 100 CALM      29.83S
CLARION *      CLOUDY    32  32 100 CALM      29.83F
ESTHERVILLE    CLOUDY    31  29  92 CALM      29.82R
FORT DODGE *   CLOUDY    32  28  86 CALM      29.84R
MASON CITY     CLOUDY    32  28  85 NW3       29.84R
FOREST CITY *  CLOUDY    32  32 100 CALM      29.83R
WEBSTER CITY * CLOUDY    32 N/A N/A NE3       29.81F
IOWA FALLS *   CLOUDY    33  29  86 N3        29.84S
$$

IAZ007>011-017>019-026>030-037>042-050>054-066-240200-
   NORTHEAST IOWA

CITY           SKY/WX    TMP DP  RH WIND       PRES   REMARKS
CEDAR RAPIDS   CLOUDY    32  30  92 W6        29.84R WCI  26
CHARLES CITY * CLOUDY    32  32 100 NW5       29.83S WCI  27
CLINTON *      CLOUDY    36  34  92 NW7       29.84R WCI  30
DECORAH *      CLOUDY    34  30  86 CALM      29.81S
DUBUQUE        CLOUDY    34  32  92 NW7       29.82R WCI  28
MONTICELLO *   CLOUDY    34  32  93 W6        29.84R WCI  29
OELWEIN *      CLOUDY    32  32 100 CALM      29.84R
WATERLOO       CLOUDY    33  28  81 CALM      29.84S
$$

IAZ064-065-067-068-078-240200-
   EAST CENTRAL IOWA

CITY           SKY/WX    TMP DP  RH WIND       PRES   REMARKS
DAVENPORT      CLOUDY    36  33  89 NW9       29.85R WCI  29
IOWA CITY      CLOUDY    35  29  78 NW7       29.87S WCI  29
MUSCATINE *    CLOUDY    36  30  80 NW7G13    29.86F WCI  30
QUAD CITIES    CLOUDY    38  33  82 W9        29.85R WCI  31
$$

IAZ062-063-075>077-085>089-095>099-240200-
   SOUTHEAST IOWA

CITY           SKY/WX    TMP DP  RH WIND       PRES   REMARKS
BURLINGTON     CLOUDY    35  31  85 NW6       29.86R WCI  30
FAIRFIELD *    CLOUDY    34  28  80 N7        29.86R WCI  28
FORT MADISON * CLOUDY    36  30  80 NW7       29.87S WCI  30
KEOKUK *       CLOUDY    36 N/A N/A NW7       29.86S WCI  30
OSKALOOSA *    CLOUDY    32  29  90 CALM      29.86S
CENTERVILLE *  CLOUDY    32  32 100 CALM      29.86S
OTTUMWA        CLOUDY    33  28  81 N5        29.84F WCI  29
WASHINGTON *   CLOUDY    34  32  93 NW6       29.86F WCI  29
$$

ABBREVIATIONS USED IN REMARKS
   TC - TEMPERATURES IN CELSIUS
  WCI - WIND CHILL INDEX
   HX - HEAT INDEX
  VSB - VISIBILITY
$$




USA.gov is the U.S. government's official web portal to all federal, state and local government web resources and services.